Regional Weather Roundup
Issued by NWS Newport/Morehead, NC

Current Version | Previous Version | Graphics & Text | Print | Product List | Glossary Off
Versions: 1 2 3 4 5 6 7 8 9 10 11 12 13 14 15 16 17 18 19 20 21 22 23 24 25 26 27 28 29 30 31 32 33 34 35 36 37 38 39 40 41 42 43 44 45 46 47 48 49 50

000
ASUS42 KMHX 292122
RWRMHX
WEATHER ROUNDUP FOR EASTERN NORTH CAROLINA
NATIONAL WEATHER SERVICE NEWPORT/MOREHEAD CITY NC
500 PM EDT TUE JUL 29 2014

NOTE: "FAIR" INDICATES FEW OR NO CLOUDS BELOW 12,000 FEET
WITH NO SIGNIFICANT WEATHER AND/OR OBSTRUCTIONS TO VISIBILITY

NCZ015>017-031-032-045>047-102-103-292200-
NORTH COAST

CITY           SKY/WX    TMP DP  RH WIND       PRES   REMARKS
EDENTON        MOSUNNY   81  61  51 N7        29.93R
ELIZABETH CITY SUNNY     78  65  63 NE9       29.93R
KITTY HAWK     CLEAR     77  64  63 NE7       29.93R
MANTEO         NOT AVBL

$$

NCZ045>047-081-094-103-104-292200-
CENTRAL COAST

CITY           SKY/WX    TMP DP  RH WIND       PRES   REMARKS
FRISCO         MOSUNNY   81  67  62 NE8       29.92R
SWANQUARTER      N/A     81 N/A N/A NE2       29.88S

$$

NCZ095-097-098-100-101-292200-
SOUTHERN COAST

CITY           SKY/WX    TMP DP  RH WIND       PRES   REMARKS
BEAUFORT       MOSUNNY   84  66  54 VRB7      29.91R
CEDAR ISLAND     N/A     81 N/A N/A NE9       29.97R
JACKSONVILLE   PTSUNNY   86  63  45 N8        29.90R
NEWPORT        NOT AVBL
PINEY ISLAND   PTCLDY    82  69  64 NE9       29.91R
WILMINGTON     PTSUNNY   84  68  58 E9        29.89S


$$

NCZ011>013-027>030-043-044-078>080-089-090>093-098-292200-
COASTAL PLAIN

CITY           SKY/WX    TMP DP  RH WIND       PRES   REMARKS
AHOSKIE        SUNNY     79  53  41 NE5       29.94R
CLINTON        PTSUNNY   84  64  50 NE6       29.93R
ELIZABETHTOWN  MOSUNNY   84  60  43 CALM      29.91R
GOLDSBORO      PTSUNNY   82  62  50 VRB7      29.91R
GREENVILLE     PTSUNNY   81  59  47 N6        29.95R
HAVELOCK       PTSUNNY   83  66  56 NE7       29.91R
KENANSVILLE    MOSUNNY   82  60  46 N7        29.93S
KINSTON        SUNNY     82  57  42 E6        29.94R
NEW BERN       CLOUDY    84  66  54 E7        29.92R
RICHLANDS      MOSUNNY   82  63  51 N8        29.92R
ROANOKE RAPIDS NOT AVBL
ROCKY MOUNT    MOSUNNY   81  56  42 VRB5      29.94S
WASHINGTON     SUNNY     80  60  49 N7        29.93R
WHITEVILLE     MOSUNNY   86  62  43 CALM      29.90S

$$

AMZ130-135-150-152-154-156-158-170-250-252-270-ANZ085-086-088-633-658-670-292200-
MARINE OBSERVATIONS

STATION/POSITION TIME  TEMP    WIND        PRES    WAVE   SWELL
                       AIR SEA DIR/SP/G            HT/PER HT/PER
                 (UTC) (F)     (DEG/KT/KT) (MB)    (FT/S) (FT/S)
CHESAPEAKE LIGHT NOT AVBL
BUOY 44014       2100   74 79  360/ 10/ 12 1013.0    2/ 7   2/ 7
DUCK             2100   74 71   30/  9/ 11 1013.0
2E DUCK          2100                        N/A     2/ 4
OREGON INLET     2100   76 78   20/ 10/ 14 1013.5
BUOY 44095       2000      79                N/A     3/ 8
20E OREGON INLET NOT AVBL
HATTERAS CG      2100   78 81   40/  9/ 12 1013.5
DIAMOND BUOY     2100          VRB 14/ 16  1012.6    4/ 7   2/ 7
CAPE LOOKOUT     2100   78      70/ 11/ 13 1012.7
BEAUFORT LAB     2100   82 83   20/  7/  9 1012.3
30 SE NEW RIVER  2100   79 81   60/ 10/ 10 1012.9    4/ 7   3/ 7
5 SE WRIGHTSVILL 2100   77 82  100/ 12/ 14   N/A
BUOY 41002       2043   80 81  210/ 23/ 29 1013.0    6/ 7   2/15
BUOY 41004       2100   81 84   30/  8/ 10 1011.8    3/ 5   3/ 5

$$


USA.gov is the U.S. government's official web portal to all federal, state and local government web resources and services.